Location: Praha
(50.0830°N, 14.4670°E)
Time: 18:02:21
(UTC+01:00)

ISS - Pass Details

Date: 10 January 2020
Orbit: 415 x 421 km, 51.6° (Epoch: 18 January)

Event Time Altitude Azimuth Distance (km) Brightness Sun altitude
Exits shadow 04:54:24 11° 138° (SE) 1,446 -0.6 -28.6°
Drops below altitude 10° 04:54:30 10° 137° (SE) 1,484 -0.5 -28.6°
Sets 04:56:38 0° 130° (SE) 2,344 0.8 -28.3°
